Wind_Speed
14 15 16 16 16 17 17 18 18 18 18 19 18 19 19 19 19 20 21 21 22 23 23 24 25 25 25 26 26 27 28 28 28 28 28 29 30 30
14 15 16 16 17 17 17 18 18 19 19 19 19 19 19 20 20 20 20 21 21 22 23 24 25 26 26 27 27 27 28 29 30 29 30 30 30 30
14 15 16 16 17 17 18 18 18 18 18 18 19 19 19 20 20 20 21 21 21 22 23 24 25 26 26 27 27 28 28 28 29 29 29 30 30 30
13 14 15 16 17 17 18 18 18 19 19 19 19 19 20 20 21 21 21 22 23 23 24 24 25 26 27 27 28 28 28 28 29 30 29 29 30 31
13 13 14 14 15 16 16 17 17 18 18 19 19 19 20 21 21 21 21 22 23 24 25 25 25 26 27 28 28 28 28 28 29 29 30 30 31 31
13 13 14 15 15 16 17 18 18 18 19 19 19 19 20 21 21 22 22 23 23 25 26 26 27 28 28 28 28 28 29 29 29 29 30 30 31 32
14 14 15 16 17 18 18 19 19 20 20 21 21 21 22 22 22 23 23 23 24 24 24 25 26 27 28 28 28 28 29 29 29 30 30 31 31 32
15 15 16 17 18 19 20 21 21 21 22 22 23 23 23 23 24 24 24 25 25 25 25 25 26 26 27 27 27 28 29 30 30 30 31 31 32 33
16 16 16 17 18 19 19 20 21 22 23 23 23 24 24 24 24 25 25 25 26 26 27 26 27 26 26 26 26 27 27 28 29 30 30 30 31 32
17 17 17 18 18 19 20 20 21 21 22 22 22 23 23 23 24 24 25 26 26 26 26 26 26 25 25 25 25 26 27 28 29 30 31 31 32 33
18 18 19 19 20 20 21 21 21 21 22 22 22 23 23 23 24 24 25 25 25 25 25 25 24 24 24 25 25 25 26 27 28 29 30 31 32 33
19 19 19 20 21 21 21 21 21 22 22 22 23 23 24 24 24 24 23 23 23 22 23 23 24 24 24 25 26 26 26 26 27 28 30 30 31 32
19 19 20 20 21 22 22 22 22 22 23 22 23 24 24 24 24 24 23 23 23 22 23 23 24 24 25 25 25 26 27 27 27 28 29 30 30 31
20 21 21 21 21 22 22 22 22 23 23 23 24 24 24 24 24 24 24 24 24 23 24 25 25 26 26 26 26 26 27 28 28 29 29 30 31 31
22 22 22 22 23 23 23 22 23 23 24 24 24 24 24 24 24 24 24 24 25 25 25 26 26 26 27 27 27 27 27 28 28 29 29 30 31 31
23 23 23 24 24 23 23 23 24 24 24 24 24 24 24 24 24 24 24 24 25 26 26 26 26 26 27 27 28 27 27 27 28 29 29 29 30 30
24 24 24 24 24 24 24 24 24 24 24 23 23 23 23 23 23 23 24 25 25 26 26 27 27 27 28 28 28 27 27 27 28 28 28 29 29 30
25 25 25 25 24 24 24 24 24 23 23 23 23 23 22 22 23 23 24 25 25 26 27 27 27 27 27 28 28 28 28 28 28 28 28 28 27 28
25 25 25 25 25 25 25 24 24 24 23 23 23 23 24 23 24 24 25 26 26 26 26 26 26 26 26 26 27 28 28 28 28 28 28 27 27 27
25 25 25 25 24 25 24 24 24 23 23 23 24 23 24 24 24 25 26 26 26 25 26 26 26 26 26 27 27 28 28 28 28 28 27 27 27 28
24 24 24 24 24 24 24 24 23 23 24 24 24 24 24 25 26 26 26 26 26 26 26 26 27 28 28 28 28 28 28 29 29 29 28 28 28 28
24 24 24 24 24 24 24 24 24 24 24 24 24 25 25 26 26 26 26 26 27 27 26 27 27 28 28 28 28 28 28 29 29 29 29 29 28 28
23 23 24 24 24 24 24 24 24 24 25 25 25 25 26 26 26 27 27 27 27 27 27 27 27 27 27 28 28 28 28 28 29 28 28 28 28 27
Wind_Direction
259 257 255 256 260 263 263 263 266 268 271 274 275 277 278 278 273 268 268 268 268 269 267 265 264 264 265 264 265 265 264 263 261 258 256 256 254 254
261 260 259 258 261 264 266 266 267 269 270 272 273 277 277 276 275 271 270 270 270 269 269 268 266 265 267 266 266 266 266 264 262 260 257 256 254 253
267 266 265 265 267 268 268 269 271 271 271 271 274 276 278 277 277 275 274 273 272 272 272 270 268 266 267 267 268 267 267 267 264 262 261 258 256 253
273 274 272 270 270 272 271 270 272 274 275 275 278 277 277 278 279 277 275 273 272 272 271 270 269 268 269 271 270 269 268 270 269 266 264 261 258 255
275 276 277 276 274 273 274 273 274 275 277 278 279 280 280 279 279 279 277 274 273 273 273 273 272 272 272 272 273 271 270 271 271 269 265 263 260 256
277 278 279 279 278 275 275 275 275 276 277 279 279 280 281 280 280 280 281 279 279 277 275 275 274 273 274 275 275 272 270 270 269 269 267 265 262 258
277 276 278 279 279 276 274 274 274 276 277 278 279 280 281 281 281 280 280 280 280 281 280 279 278 277 277 276 274 272 270 269 268 268 268 266 264 260
280 279 280 281 280 278 277 276 276 276 278 279 279 280 280 281 282 283 282 281 281 281 280 280 279 279 279 278 276 274 271 270 268 268 268 267 265 262
282 282 283 283 284 282 281 280 279 278 279 280 281 281 283 282 282 282 282 281 281 281 281 280 280 281 281 281 278 276 274 273 271 269 268 266 266 265
283 285 284 284 286 286 286 284 282 282 282 281 282 283 284 284 282 282 282 282 282 282 281 281 281 282 282 283 282 278 276 276 275 273 270 267 266 265
283 284 284 285 287 289 288 287 285 284 284 284 283 284 285 286 286 285 284 285 284 283 284 283 282 283 283 284 284 281 278 277 276 274 273 271 269 268
284 283 283 284 287 289 288 287 286 287 287 287 287 286 285 286 286 286 286 286 285 284 285 285 284 285 284 284 284 284 283 282 279 277 274 273 272 271
283 283 284 287 289 290 288 287 286 287 287 287 288 289 288 288 286 287 286 286 286 284 284 285 285 286 286 285 284 285 285 283 281 279 276 274 273 273
283 284 284 285 287 289 288 287 286 285 286 287 290 290 289 288 286 286 286 287 288 287 286 286 286 285 285 286 286 286 286 284 282 280 278 276 275 275
282 282 283 285 286 286 286 286 285 285 286 288 289 288 287 285 285 286 286 287 288 289 289 287 287 286 287 287 287 287 287 287 285 283 281 279 278 277
283 284 284 285 286 286 286 287 287 287 287 288 289 288 286 285 284 285 286 287 289 290 290 289 288 288 289 289 289 289 289 289 287 286 284 283 282 280
282 284 284 284 284 286 287 288 288 289 289 290 291 290 290 288 287 287 288 289 290 290 290 290 289 289 290 290 290 290 290 290 289 288 286 285 283 281
282 283 283 283 284 285 287 288 289 288 288 289 290 291 290 290 289 289 290 292 291 290 290 289 289 290 290 290 291 291 291 291 292 291 289 287 285 283
282 282 282 282 282 284 286 287 288 288 288 288 289 289 289 290 291 291 291 292 294 293 292 291 290 290 291 292 293 292 292 292 291 291 290 288 286 286
282 282 283 283 283 285 285 286 287 287 287 289 290 290 291 291 291 292 292 293 294 294 294 293 292 291 293 294 294 294 294 293 292 291 290 289 288 288
280 282 283 284 285 287 287 286 286 286 287 289 291 291 292 292 292 292 292 293 293 293 292 292 292 291 293 294 294 294 294 295 295 293 292 291 289 287
282 282 284 285 286 287 287 285 286 287 287 289 291 292 293 293 293 293 292 292 291 291 291 292 292 292 293 293 294 294 295 296 296 295 294 292 290 288
284 283 284 285 285 285 285 285 285 286 287 288 290 292 292 293 293 294 294 293 293 292 292 292 292 293 294 294 294 295 296 296 296 297 295 293 292 290
Height
5812 5812 5812 5813 5813 5814 5814 5815 5815 5815 5815 5815 5814 5814 5813 5813 5813 5812 5812 5812 5812 5812 5811 5812 5812 5812 5812 5812 5812 5812 5812 5813 5813 5814 5815 5816 5817 5818
5808 5809 5809 5809 5810 5810 5810 5810 5810 5810 5810 5810 5809 5809 5808 5808 5807 5807 5807 5807 5806 5806 5806 5805 5805 5805 5805 5805 5805 5805 5805 5805 5806 5806 5807 5808 5809 5810
5805 5806 5806 5806 5806 5806 5806 5805 5805 5805 5806 5806 5805 5804 5803 5803 5802 5802 5801 5801 5800 5800 5800 5799 5799 5799 5798 5798 5798 5798 5798 5798 5798 5798 5799 5800 5801 5803
5802 5802 5802 5802 5802 5802 5801 5801 5801 5800 5801 5801 5800 5799 5799 5798 5797 5796 5796 5795 5794 5794 5794 5793 5793 5792 5792 5791 5791 5790 5790 5790 5790 5790 5791 5792 5793 5794
5799 5799 5798 5797 5797 5797 5797 5796 5796 5795 5795 5795 5795 5794 5793 5792 5792 5791 5790 5789 5788 5788 5787 5786 5786 5785 5784 5784 5783 5783 5782 5782 5782 5782 5783 5783 5784 5786
5796 5795 5794 5794 5793 5793 5792 5792 5791 5791 5790 5790 5789 5788 5788 5787 5786 5785 5784 5783 5782 5781 5780 5780 5779 5778 5777 5777 5776 5775 5775 5775 5774 5774 5774 5775 5775 5777
5792 5791 5790 5790 5789 5788 5788 5787 5786 5786 5785 5784 5783 5782 5782 5781 5780 5779 5778 5777 5775 5774 5774 5773 5772 5771 5770 5769 5768 5767 5767 5767 5766 5766 5766 5766 5767 5768
5788 5787 5786 5785 5784 5783 5783 5782 5781 5780 5779 5778 5778 5777 5776 5775 5774 5772 5771 5770 5769 5768 5767 5766 5765 5764 5763 5761 5760 5759 5759 5759 5759 5758 5758 5758 5758 5759
5784 5783 5781 5780 5779 5778 5777 5776 5775 5774 5773 5772 5771 5770 5769 5768 5767 5766 5764 5763 5762 5761 5760 5759 5757 5756 5755 5754 5752 5752 5751 5751 5750 5750 5750 5750 5750 5750
5779 5778 5777 5776 5774 5773 5772 5771 5769 5768 5767 5766 5765 5764 5762 5761 5760 5759 5757 5756 5755 5753 5752 5751 5750 5749 5747 5746 5745 5744 5743 5742 5742 5741 5741 5741 5741 5741
5774 5773 5772 5770 5769 5768 5767 5765 5764 5762 5761 5759 5758 5757 5755 5754 5753 5751 5750 5748 5747 5746 5744 5743 5742 5741 5740 5739 5737 5736 5735 5734 5733 5732 5732 5731 5731 5731
5768 5767 5766 5765 5764 5762 5761 5759 5758 5756 5755 5753 5752 5750 5749 5747 5746 5744 5743 5741 5740 5739 5737 5736 5735 5734 5733 5732 5730 5728 5727 5726 5724 5724 5723 5722 5722 5722
5763 5762 5761 5759 5758 5756 5755 5753 5752 5750 5748 5747 5745 5743 5742 5740 5739 5737 5736 5735 5733 5732 5730 5729 5728 5726 5725 5724 5723 5721 5719 5717 5716 5715 5714 5713 5713 5712
5757 5756 5754 5753 5752 5750 5748 5747 5745 5744 5742 5740 5739 5737 5735 5733 5731 5730 5729 5728 5726 5725 5723 5721 5720 5719 5718 5716 5715 5713 5711 5709 5708 5706 5705 5704 5703 5703
5750 5749 5748 5747 5745 5743 5742 5740 5738 5737 5735 5733 5731 5730 5728 5726 5724 5723 5722 5720 5719 5717 5715 5714 5712 5711 5709 5708 5706 5705 5703 5701 5699 5698 5696 5695 5694 5693
5743 5742 5741 5740 5738 5737 5735 5733 5731 5729 5728 5726 5724 5722 5720 5719 5717 5716 5715 5713 5711 5709 5707 5706 5704 5703 5701 5699 5698 5696 5694 5693 5691 5689 5687 5686 5684 5683
5736 5735 5734 5732 5731 5730 5728 5726 5724 5722 5721 5719 5717 5715 5714 5712 5711 5709 5707 5706 5704 5702 5700 5698 5696 5694 5693 5691 5690 5688 5686 5684 5682 5680 5678 5677 5675 5673
5729 5728 5727 5725 5724 5722 5721 5719 5717 5715 5714 5712 5710 5709 5707 5705 5704 5702 5700 5698 5696 5694 5692 5690 5688 5687 5685 5683 5682 5680 5678 5675 5673 5671 5669 5668 5666 5664
5722 5721 5719 5717 5716 5715 5713 5712 5710 5708 5707 5705 5704 5702 5700 5699 5697 5695 5693 5691 5688 5686 5684 5682 5680 5678 5677 5676 5674 5671 5669 5667 5665 5663 5661 5659 5657 5655
5714 5713 5711 5710 5709 5707 5706 5704 5703 5701 5700 5699 5697 5695 5693 5691 5690 5687 5685 5683 5680 5678 5676 5674 5672 5670 5669 5667 5665 5663 5660 5658 5656 5654 5652 5650 5648 5646
5706 5705 5703 5702 5701 5699 5698 5697 5696 5694 5693 5692 5690 5688 5686 5684 5682 5680 5677 5675 5673 5671 5668 5666 5664 5662 5660 5659 5657 5655 5652 5650 5647 5645 5643 5641 5639 5637
5699 5697 5696 5694 5693 5692 5690 5690 5688 5687 5686 5684 5683 5681 5679 5677 5674 5672 5669 5667 5664 5662 5660 5658 5656 5654 5652 5650 5648 5646 5644 5641 5638 5636 5633 5632 5630 5628
5691 5689 5688 5687 5685 5684 5683 5682 5681 5680 5678 5677 5675 5673 5671 5668 5666 5664 5661 5659 5656 5654 5652 5650 5647 5645 5643 5641 5639 5637 5635 5632 5630 5627 5625 5622 5620 5618